Tracking 31027 objects as of 19-Jul-2025
HD Live streaming from Space Station
objects crossing your sky now

COSMOS 839 DEB

Track COSMOS 839 DEB now!
10-day predictions


NORAD ID: 10416
Int'l Code: 1976-067K
Perigee: 1,073.7 km
Apogee: 2,122.2 km
Inclination: 65.7 °
Period: 118.0 minutes
Semi major axis: 7968 km
RCS: 0.1276 m2 (medium)
Launch date: July 8, 1976
Source: Commonwealth of Independent States (former USSR) (CIS)
Launch site: PLESETSK MISSILE AND SPACE COMPLEX (PKMTR)

Note: This is SATELLITE DEBRIS
Your satellite tracking list
STARLINK-1578
Track 1 satellite(s)




NASA's NSSDC Master Catalog

Two Line Element Set (TLE):
1 10416U 76067K   25199.84712470 -.00000080  00000-0 -12604-3 0  9993
2 10416  65.7152 126.0176 0657857 222.4060 168.4167 12.20398729185197
Source of the keplerian elements: AFSPC